,,PressureMeas_1m,,PRMeasQMR101_1,,RHStat155_1m_1,,SRMeasQMS101R_1m,,TAStat155_1m_1,,GenWind_1,,GenWind_1,
2018-11-09, 00:00:06,VALID,917.572,VALID,0.0,VALID,98.702,VALID,0.011,VALID,19.845,VALID,299.0,VALID,0.0,
2018-11-09, 00:01:06,VALID,917.544,VALID,0.0,VALID,98.744,VALID,-0.0,VALID,19.836,VALID,329.0,VALID,0.0,
2018-11-09, 00:02:06,VALID,917.505,VALID,0.0,VALID,98.742,VALID,0.01,VALID,19.854,VALID,21.0,VALID,0.0,
2018-11-09, 00:03:06,VALID,917.5,VALID,0.0,VALID,98.793,VALID,-0.009,VALID,19.88,VALID,23.0,VALID,0.0,
2018-11-09, 00:04:06,VALID,917.483,VALID,0.0,VALID,98.808,VALID,-0.011,VALID,19.879,VALID,4.0,VALID,0.0,
2018-11-09, 00:05:06,VALID,917.475,VALID,0.0,VALID,98.778,VALID,-0.019,VALID,19.849,VALID,1.0,VALID,0.0,
2018-11-09, 00:06:06,VALID,917.481,VALID,0.0,VALID,98.82,VALID,0.005,VALID,19.879,VALID,17.0,VALID,0.0,
2018-11-09, 00:07:06,VALID,917.478,VALID,0.0,VALID,98.832,VALID,0.006,VALID,19.891,VALID,44.0,VALID,0.0,
2018-11-09, 00:08:06,VALID,917.482,VALID,0.0,VALID,98.848,VALID,0.002,VALID,19.89,VALID,119.0,VALID,0.0,
2018-11-09, 00:09:06,VALID,917.497,VALID,0.0,VALID,98.894,VALID,-0.004,VALID,19.917,VALID,162.0,VALID,0.0,
2018-11-09, 00:10:06,VALID,917.496,VALID,0.0,VALID,98.892,VALID,-0.016,VALID,19.911,VALID,127.0,VALID,0.0,
2018-11-09, 00:11:06,VALID,917.476,VALID,0.0,VALID,98.906,VALID,-0.025,VALID,19.932,VALID,53.0,VALID,0.0,
2018-11-09, 00:12:06,VALID,917.466,VALID,0.0,VALID,98.856,VALID,-0.033,VALID,19.9,VALID,59.0,VALID,0.0,
2018-11-09, 00:13:06,VALID,917.451,VALID,0.0,VALID,98.88,VALID,-0.04,VALID,19.899,VALID,49.0,VALID,0.0,
2018-11-09, 00:14:06,VALID,917.428,VALID,0.0,VALID,98.904,VALID,-0.032,VALID,19.919,VALID,32.0,VALID,0.0,
2018-11-09, 00:15:06,VALID,917.435,VALID,0.0,VALID,98.885,VALID,-0.009,VALID,19.91,VALID,32.0,VALID,0.0,
2018-11-09, 00:16:06,VALID,917.419,VALID,0.0,VALID,98.921,VALID,-0.024,VALID,19.949,VALID,32.0,VALID,0.0,
2018-11-09, 00:17:06,VALID,917.388,VALID,0.0,VALID,98.942,VALID,-0.011,VALID,19.969,VALID,46.0,VALID,0.0,
2018-11-09, 00:18:06,VALID,917.359,VALID,0.0,VALID,98.876,VALID,-0.029,VALID,19.916,VALID,9.0,VALID,0.0,
2018-11-09, 00:19:06,VALID,917.339,VALID,0.0,VALID,98.88,VALID,-0.027,VALID,19.876,VALID,28.0,VALID,0.0,
2018-11-09, 00:20:06,VALID,917.319,VALID,0.0,VALID,98.891,VALID,-0.01,VALID,19.863,VALID,6.0,VALID,0.0,
2018-11-09, 00:21:06,VALID,917.314,VALID,0.0,VALID,98.866,VALID,-0.019,VALID,19.829,VALID,347.0,VALID,0.0,
2018-11-09, 00:22:06,VALID,917.289,VALID,0.0,VALID,98.887,VALID,-0.022,VALID,19.813,VALID,337.0,VALID,0.0,
2018-11-09, 00:23:06,VALID,917.296,VALID,0.0,VALID,98.854,VALID,-0.027,VALID,19.793,VALID,359.0,VALID,0.0,
2018-11-09, 00:24:06,VALID,917.296,VALID,0.0,VALID,98.895,VALID,-0.007,VALID,19.806,VALID,334.0,VALID,0.0,
2018-11-09, 00:25:06,VALID,917.274,VALID,0.0,VALID,98.886,VALID,0.006,VALID,19.81,VALID,349.0,VALID,0.0,
2018-11-09, 00:26:06,VALID,917.275,VALID,0.0,VALID,98.877,VALID,0.011,VALID,19.802,VALID,328.0,VALID,0.0,
2018-11-09, 00:27:06,VALID,917.287,VALID,0.0,VALID,98.857,VALID,-0.014,VALID,19.793,VALID,346.0,VALID,0.0,
2018-11-09, 00:28:06,VALID,917.29,VALID,0.0,VALID,98.876,VALID,0.008,VALID,19.799,VALID,345.0,VALID,0.0,
2018-11-09, 00:29:06,VALID,917.279,VALID,0.0,VALID,98.903,VALID,0.017,VALID,19.82,VALID,358.0,VALID,0.0,
2018-11-09, 00:30:06,VALID,917.281,VALID,0.0,VALID,98.888,VALID,0.013,VALID,19.819,VALID,8.0,VALID,0.0,
2018-11-09, 00:31:06,VALID,917.294,VALID,0.0,VALID,98.867,VALID,0.024,VALID,19.798,VALID,14.0,VALID,0.0,
2018-11-09, 00:32:06,VALID,917.287,VALID,0.0,VALID,98.893,VALID,0.023,VALID,19.814,VALID,22.0,VALID,0.0,
2018-11-09, 00:33:06,VALID,917.281,VALID,0.0,VALID,98.932,VALID,0.011,VALID,19.84,VALID,17.0,VALID,0.0,
2018-11-09, 00:34:06,VALID,917.278,VALID,0.0,VALID,98.937,VALID,0.008,VALID,19.845,VALID,18.0,VALID,0.0,
2018-11-09, 00:35:06,VALID,917.295,VALID,0.0,VALID,98.947,VALID,0.012,VALID,19.862,VALID,18.0,VALID,0.0,
2018-11-09, 00:36:06,VALID,917.279,VALID,0.0,VALID,98.966,VALID,0.034,VALID,19.858,VALID,304.0,VALID,0.0,
2018-11-09, 00:37:06,VALID,917.282,VALID,0.0,VALID,98.918,VALID,0.021,VALID,19.813,VALID,283.0,VALID,0.0,
2018-11-09, 00:38:06,VALID,917.26,VALID,0.0,VALID,98.942,VALID,0.031,VALID,19.831,VALID,310.0,VALID,0.0,
2018-11-09, 00:39:06,VALID,917.241,VALID,0.0,VALID,98.953,VALID,-0.002,VALID,19.84,VALID,338.0,VALID,0.0,
2018-11-09, 00:40:06,VALID,917.226,VALID,0.0,VALID,98.932,VALID,-0.022,VALID,19.83,VALID,22.0,VALID,0.0,
2018-11-09, 00:41:06,VALID,917.224,VALID,0.0,VALID,98.925,VALID,0.005,VALID,19.8,VALID,24.0,VALID,0.0,
2018-11-09, 00:42:06,VALID,917.204,VALID,0.0,VALID,98.944,VALID,-0.014,VALID,19.831,VALID,24.0,VALID,0.0,
2018-11-09, 00:43:06,VALID,917.172,VALID,0.0,VALID,98.949,VALID,-0.027,VALID,19.823,VALID,24.0,VALID,0.0,
2018-11-09, 00:44:06,VALID,917.171,VALID,0.0,VALID,98.958,VALID,-0.021,VALID,19.833,VALID,24.0,VALID,0.0,
2018-11-09, 00:45:06,VALID,917.126,VALID,0.0,VALID,98.93,VALID,-0.03,VALID,19.811,VALID,24.0,VALID,0.0,
2018-11-09, 00:46:06,VALID,917.108,VALID,0.0,VALID,98.931,VALID,-0.007,VALID,19.804,VALID,24.0,VALID,0.0,
2018-11-09, 00:47:06,VALID,917.1,VALID,0.0,VALID,98.988,VALID,-0.023,VALID,19.864,VALID,24.0,VALID,0.0,
2018-11-09, 00:48:06,VALID,917.088,VALID,0.0,VALID,99.008,VALID,-0.024,VALID,19.91,VALID,24.0,VALID,0.0,
2018-11-09, 00:49:06,VALID,917.07,VALID,0.0,VALID,98.968,VALID,-0.003,VALID,19.887,VALID,9.0,VALID,0.0,
2018-11-09, 00:50:06,VALID,917.067,VALID,0.0,VALID,98.954,VALID,-0.024,VALID,19.849,VALID,343.0,VALID,0.0,
2018-11-09, 00:51:06,VALID,917.044,VALID,0.0,VALID,98.957,VALID,-0.011,VALID,19.862,VALID,345.0,VALID,0.0,
2018-11-09, 00:52:06,VALID,917.041,VALID,0.0,VALID,98.957,VALID,-0.01,VALID,19.865,VALID,345.0,VALID,0.0,
2018-11-09, 00:53:06,VALID,917.047,VALID,0.0,VALID,98.942,VALID,-0.023,VALID,19.837,VALID,345.0,VALID,0.0,
2018-11-09, 00:54:06,VALID,917.016,VALID,0.0,VALID,98.943,VALID,-0.012,VALID,19.816,VALID,345.0,VALID,0.0,
2018-11-09, 00:55:06,VALID,917.002,VALID,0.0,VALID,98.941,VALID,0.016,VALID,19.832,VALID,345.0,VALID,0.0,
2018-11-09, 00:56:06,VALID,917.002,VALID,0.0,VALID,98.964,VALID,0.02,VALID,19.854,VALID,345.0,VALID,0.0,
2018-11-09, 00:57:06,VALID,916.973,VALID,0.0,VALID,98.95,VALID,0.012,VALID,19.87,VALID,345.0,VALID,0.0,
2018-11-09, 00:58:06,VALID,916.943,VALID,0.0,VALID,98.948,VALID,0.029,VALID,19.853,VALID,210.0,VALID,0.0,
2018-11-09, 00:59:06,VALID,916.918,VALID,0.0,VALID,98.93,VALID,0.007,VALID,19.835,VALID,175.0,VALID,0.0,
2018-11-09, 01:00:06,VALID,916.891,VALID,0.0,VALID,98.919,VALID,0.013,VALID,19.823,VALID,175.0,VALID,0.0,
2018-11-09, 01:01:06,VALID,916.875,VALID,0.0,VALID,98.938,VALID,0.016,VALID,19.846,VALID,212.0,VALID,0.0,
2018-11-09, 01:02:06,VALID,916.856,VALID,0.0,VALID,98.953,VALID,0.016,VALID,19.865,VALID,7.0,VALID,0.0,
2018-11-09, 01:03:06,VALID,916.84,VALID,0.0,VALID,98.918,VALID,0.014,VALID,19.838,VALID,8.0,VALID,0.0,
2018-11-09, 01:04:06,VALID,916.82,VALID,0.0,VALID,98.979,VALID,0.015,VALID,19.876,VALID,15.0,VALID,0.0,
2018-11-09, 01:05:06,VALID,916.773,VALID,0.0,VALID,98.973,VALID,0.019,VALID,19.89,VALID,28.0,VALID,0.0,
2018-11-09, 01:06:06,VALID,916.749,VALID,0.0,VALID,98.995,VALID,0.011,VALID,19.897,VALID,28.0,VALID,0.0,
2018-11-09, 01:07:06,VALID,916.731,VALID,0.0,VALID,98.991,VALID,0.015,VALID,19.892,VALID,28.0,VALID,0.0,
2018-11-09, 01:08:06,VALID,916.728,VALID,0.0,VALID,99.005,VALID,0.008,VALID,19.907,VALID,28.0,VALID,0.0,
2018-11-09, 01:09:06,VALID,916.689,VALID,0.0,VALID,98.997,VALID,0.001,VALID,19.907,VALID,295.0,VALID,0.0,
2018-11-09, 01:10:06,VALID,916.683,VALID,0.0,VALID,99.003,VALID,-0.003,VALID,19.895,VALID,209.0,VALID,0.0,
2018-11-09, 01:11:06,VALID,916.65,VALID,0.0,VALID,98.979,VALID,-0.004,VALID,19.883,VALID,206.0,VALID,0.0,
2018-11-09, 01:12:06,VALID,916.649,VALID,0.0,VALID,99.016,VALID,0.003,VALID,19.885,VALID,210.0,VALID,0.0,
2018-11-09, 01:13:06,VALID,916.636,VALID,0.0,VALID,98.992,VALID,-0.023,VALID,19.878,VALID,201.0,VALID,0.0,
2018-11-09, 01:14:06,VALID,916.598,VALID,0.0,VALID,99.015,VALID,-0.007,VALID,19.87,VALID,173.0,VALID,0.0,
2018-11-09, 01:15:06,VALID,916.595,VALID,0.0,VALID,98.999,VALID,0.003,VALID,19.859,VALID,148.0,VALID,0.0,
2018-11-09, 01:16:06,VALID,916.586,VALID,0.0,VALID,99.034,VALID,-0.024,VALID,19.869,VALID,192.0,VALID,0.0,
2018-11-09, 01:17:06,VALID,916.593,VALID,0.0,VALID,99.022,VALID,-0.011,VALID,19.879,VALID,196.0,VALID,0.0,
2018-11-09, 01:18:06,VALID,916.575,VALID,0.0,VALID,99.01,VALID,-0.004,VALID,19.865,VALID,200.0,VALID,0.0,
2018-11-09, 01:19:06,VALID,916.554,VALID,0.0,VALID,99.013,VALID,-0.025,VALID,19.846,VALID,202.0,VALID,0.0,
2018-11-09, 01:20:06,VALID,916.557,VALID,0.0,VALID,99.044,VALID,-0.025,VALID,19.869,VALID,211.0,VALID,0.0,
2018-11-09, 01:21:06,VALID,916.542,VALID,0.0,VALID,99.063,VALID,-0.022,VALID,19.872,VALID,213.0,VALID,0.0,
2018-11-09, 01:22:06,VALID,916.536,VALID,0.0,VALID,99.073,VALID,-0.02,VALID,19.88,VALID,218.0,VALID,0.0,
2018-11-09, 01:23:06,VALID,916.531,VALID,0.0,VALID,99.089,VALID,-0.009,VALID,19.918,VALID,242.0,VALID,0.0,
2018-11-09, 01:24:06,VALID,916.524,VALID,0.0,VALID,99.054,VALID,-0.002,VALID,19.888,VALID,239.0,VALID,0.0,
2018-11-09, 01:25:06,VALID,916.5,VALID,0.0,VALID,99.028,VALID,-0.004,VALID,19.875,VALID,216.0,VALID,0.0,
2018-11-09, 01:26:06,VALID,916.488,VALID,0.0,VALID,99.058,VALID,0.003,VALID,19.89,VALID,201.0,VALID,0.0,
2018-11-09, 01:27:06,VALID,916.471,VALID,0.0,VALID,99.089,VALID,0.005,VALID,19.928,VALID,238.0,VALID,0.0,
2018-11-09, 01:28:06,VALID,916.448,VALID,0.0,VALID,99.049,VALID,0.002,VALID,19.91,VALID,339.0,VALID,0.0,
2018-11-09, 01:29:06,VALID,916.445,VALID,0.0,VALID,99.022,VALID,0.007,VALID,19.861,VALID,3.0,VALID,0.0,
2018-11-09, 01:30:06,VALID,916.397,VALID,0.0,VALID,99.043,VALID,-0.011,VALID,19.859,VALID,9.0,VALID,0.0,
2018-11-09, 01:31:06,VALID,916.406,VALID,0.0,VALID,99.06,VALID,-0.013,VALID,19.865,VALID,7.0,VALID,0.0,
2018-11-09, 01:32:06,VALID,916.4,VALID,0.0,VALID,99.085,VALID,0.014,VALID,19.877,VALID,6.0,VALID,0.0,
2018-11-09, 01:33:06,VALID,916.379,VALID,0.0,VALID,99.059,VALID,-0.007,VALID,19.857,VALID,12.0,VALID,0.0,
2018-11-09, 01:34:06,VALID,916.361,VALID,0.0,VALID,99.134,VALID,-0.001,VALID,19.883,VALID,20.0,VALID,0.0,
2018-11-09, 01:35:06,VALID,916.349,VALID,0.0,VALID,99.09,VALID,0.007,VALID,19.864,VALID,355.0,VALID,0.0,
2018-11-09, 01:36:06,VALID,916.362,VALID,0.0,VALID,99.094,VALID,-0.005,VALID,19.858,VALID,342.0,VALID,0.0,
2018-11-09, 01:37:06,VALID,916.344,VALID,0.0,VALID,99.109,VALID,-0.017,VALID,19.868,VALID,354.0,VALID,0.0,
2018-11-09, 01:38:06,VALID,916.331,VALID,0.0,VALID,99.119,VALID,0.012,VALID,19.881,VALID,357.0,VALID,0.0,
2018-11-09, 01:39:06,VALID,916.297,VALID,0.0,VALID,99.125,VALID,0.015,VALID,19.872,VALID,355.0,VALID,0.0,
2018-11-09, 01:40:06,VALID,916.277,VALID,0.0,VALID,99.103,VALID,0.008,VALID,19.838,VALID,351.0,VALID,0.0,
2018-11-09, 01:41:06,VALID,916.274,VALID,0.0,VALID,99.133,VALID,0.012,VALID,19.856,VALID,12.0,VALID,0.0,
2018-11-09, 01:42:06,VALID,916.247,VALID,0.0,VALID,99.116,VALID,0.012,VALID,19.831,VALID,340.0,VALID,0.0,
2018-11-09, 01:43:06,VALID,916.254,VALID,0.0,VALID,99.139,VALID,0.016,VALID,19.821,VALID,354.0,VALID,0.0,
2018-11-09, 01:44:06,VALID,916.227,VALID,0.0,VALID,99.115,VALID,0.015,VALID,19.809,VALID,5.0,VALID,0.0,
2018-11-09, 01:45:06,VALID,916.201,VALID,0.0,VALID,99.139,VALID,0.022,VALID,19.819,VALID,342.0,VALID,0.0,
2018-11-09, 01:46:06,VALID,916.194,VALID,0.0,VALID,99.132,VALID,0.027,VALID,19.806,VALID,11.0,VALID,0.0,
2018-11-09, 01:47:06,VALID,916.18,VALID,0.0,VALID,99.131,VALID,0.018,VALID,19.792,VALID,310.0,VALID,0.0,
2018-11-09, 01:48:06,VALID,916.163,VALID,0.0,VALID,99.144,VALID,0.011,VALID,19.786,VALID,319.0,VALID,0.0,
2018-11-09, 01:49:06,VALID,916.115,VALID,0.0,VALID,99.121,VALID,0.021,VALID,19.742,VALID,348.0,VALID,0.0,
2018-11-09, 01:50:06,VALID,916.076,VALID,0.0,VALID,99.12,VALID,0.015,VALID,19.72,VALID,8.0,VALID,0.0,
2018-11-09, 01:51:06,VALID,916.064,VALID,0.0,VALID,99.137,VALID,0.012,VALID,19.724,VALID,355.0,VALID,0.0,
2018-11-09, 01:52:06,VALID,916.045,VALID,0.0,VALID,99.15,VALID,0.015,VALID,19.723,VALID,353.0,VALID,0.0,
2018-11-09, 01:53:06,VALID,916.044,VALID,0.0,VALID,99.167,VALID,-0.002,VALID,19.739,VALID,354.0,VALID,0.0,
2018-11-09, 01:54:06,VALID,916.04,VALID,0.0,VALID,99.189,VALID,-0.002,VALID,19.759,VALID,20.0,VALID,0.0,
2018-11-09, 01:55:06,VALID,916.04,VALID,0.0,VALID,99.185,VALID,0.008,VALID,19.782,VALID,29.0,VALID,0.0,
2018-11-09, 01:56:06,VALID,916.041,VALID,0.0,VALID,99.2,VALID,0.003,VALID,19.793,VALID,17.0,VALID,0.0,
2018-11-09, 01:57:06,VALID,916.017,VALID,0.0,VALID,99.202,VALID,0.017,VALID,19.801,VALID,358.0,VALID,0.0,
2018-11-09, 01:58:06,VALID,916.016,VALID,0.0,VALID,99.214,VALID,-0.002,VALID,19.814,VALID,350.0,VALID,0.0,
2018-11-09, 01:59:06,VALID,915.984,VALID,0.0,VALID,99.192,VALID,-0.01,VALID,19.749,VALID,359.0,VALID,0.0,
2018-11-09, 02:00:06,VALID,915.955,VALID,0.0,VALID,99.157,VALID,0.005,VALID,19.694,VALID,357.0,VALID,0.0,
2018-11-09, 02:01:06,VALID,915.948,VALID,0.0,VALID,99.18,VALID,0.019,VALID,19.668,VALID,359.0,VALID,0.0,
2018-11-09, 02:02:06,VALID,915.947,VALID,0.0,VALID,99.195,VALID,0.011,VALID,19.675,VALID,360.0,VALID,0.0,
2018-11-09, 02:03:06,VALID,915.957,VALID,0.0,VALID,99.209,VALID,0.022,VALID,19.67,VALID,340.0,VALID,0.0,
2018-11-09, 02:04:06,VALID,915.974,VALID,0.0,VALID,99.217,VALID,0.008,VALID,19.649,VALID,208.0,VALID,0.0,
2018-11-09, 02:05:06,VALID,915.989,VALID,0.0,VALID,99.201,VALID,0.002,VALID,19.622,VALID,210.0,VALID,0.0,
2018-11-09, 02:06:06,VALID,916.009,VALID,0.0,VALID,99.184,VALID,-0.01,VALID,19.581,VALID,192.0,VALID,0.0,
2018-11-09, 02:07:06,VALID,915.98,VALID,0.0,VALID,99.194,VALID,0.004,VALID,19.502,VALID,206.0,VALID,0.0,
2018-11-09, 02:08:06,VALID,915.979,VALID,0.0,VALID,99.178,VALID,0.006,VALID,19.495,VALID,195.0,VALID,0.0,
2018-11-09, 02:09:06,VALID,915.983,VALID,0.0,VALID,99.213,VALID,-0.015,VALID,19.503,VALID,207.0,VALID,0.0,
2018-11-09, 02:10:06,VALID,915.96,VALID,0.0,VALID,99.214,VALID,-0.035,VALID,19.492,VALID,211.0,VALID,0.0,
2018-11-09, 02:11:06,VALID,915.941,VALID,0.0,VALID,99.236,VALID,-0.024,VALID,19.515,VALID,111.0,VALID,0.0,
2018-11-09, 02:12:06,VALID,915.925,VALID,0.0,VALID,99.247,VALID,-0.022,VALID,19.553,VALID,40.0,VALID,0.0,
2018-11-09, 02:13:06,VALID,915.917,VALID,0.0,VALID,99.251,VALID,-0.021,VALID,19.566,VALID,5.0,VALID,0.0,
2018-11-09, 02:14:06,VALID,915.901,VALID,0.0,VALID,99.225,VALID,-0.028,VALID,19.522,VALID,354.0,VALID,0.0,
2018-11-09, 02:15:06,VALID,915.886,VALID,0.0,VALID,99.215,VALID,-0.035,VALID,19.491,VALID,2.0,VALID,0.0,
2018-11-09, 02:16:06,VALID,915.867,VALID,0.0,VALID,99.265,VALID,-0.036,VALID,19.516,VALID,346.0,VALID,0.0,
2018-11-09, 02:17:06,VALID,915.861,VALID,0.0,VALID,99.251,VALID,-0.017,VALID,19.481,VALID,331.0,VALID,0.0,
2018-11-09, 02:18:06,VALID,915.835,VALID,0.0,VALID,99.259,VALID,-0.028,VALID,19.472,VALID,353.0,VALID,0.0,
2018-11-09, 02:19:06,VALID,915.841,VALID,0.0,VALID,99.247,VALID,-0.028,VALID,19.478,VALID,13.0,VALID,0.0,
2018-11-09, 02:20:06,VALID,915.84,VALID,0.0,VALID,99.281,VALID,-0.023,VALID,19.524,VALID,350.0,VALID,0.0,
2018-11-09, 02:21:06,VALID,915.842,VALID,0.0,VALID,99.283,VALID,-0.019,VALID,19.533,VALID,358.0,VALID,0.0,
2018-11-09, 02:22:06,VALID,915.829,VALID,0.0,VALID,99.253,VALID,-0.017,VALID,19.491,VALID,11.0,VALID,0.0,
2018-11-09, 02:23:06,VALID,915.856,VALID,0.0,VALID,99.247,VALID,-0.028,VALID,19.476,VALID,1.0,VALID,0.0,
2018-11-09, 02:24:06,VALID,915.855,VALID,0.0,VALID,99.283,VALID,-0.0,VALID,19.487,VALID,9.0,VALID,0.0,
2018-11-09, 02:25:06,VALID,915.859,VALID,0.0,VALID,99.286,VALID,0.008,VALID,19.496,VALID,27.0,VALID,0.0,
2018-11-09, 02:26:06,VALID,915.85,VALID,0.0,VALID,99.303,VALID,-0.001,VALID,19.536,VALID,6.0,VALID,0.0,
2018-11-09, 02:27:06,VALID,915.838,VALID,0.0,VALID,99.257,VALID,-0.006,VALID,19.509,VALID,14.0,VALID,0.0,
2018-11-09, 02:28:06,VALID,915.835,VALID,0.0,VALID,99.263,VALID,0.005,VALID,19.479,VALID,11.0,VALID,0.0,
2018-11-09, 02:29:06,VALID,915.842,VALID,0.0,VALID,99.268,VALID,0.014,VALID,19.462,VALID,32.0,VALID,0.0,
2018-11-09, 02:30:06,VALID,915.812,VALID,0.0,VALID,99.313,VALID,0.005,VALID,19.506,VALID,16.0,VALID,0.0,
2018-11-09, 02:31:06,VALID,915.803,VALID,0.0,VALID,99.296,VALID,0.016,VALID,19.482,VALID,9.0,VALID,0.0,
2018-11-09, 02:32:06,VALID,915.776,VALID,0.0,VALID,99.293,VALID,0.016,VALID,19.468,VALID,25.0,VALID,0.0,
2018-11-09, 02:33:06,VALID,915.761,VALID,0.0,VALID,99.302,VALID,-0.002,VALID,19.493,VALID,26.0,VALID,0.0,
2018-11-09, 02:34:06,VALID,915.756,VALID,0.0,VALID,99.317,VALID,0.005,VALID,19.504,VALID,356.0,VALID,0.0,
2018-11-09, 02:35:06,VALID,915.722,VALID,0.0,VALID,99.294,VALID,-0.002,VALID,19.525,VALID,5.0,VALID,0.0,
2018-11-09, 02:36:06,VALID,915.696,VALID,0.0,VALID,99.297,VALID,0.001,VALID,19.512,VALID,14.0,VALID,0.0,
2018-11-09, 02:37:06,VALID,915.682,VALID,0.0,VALID,99.301,VALID,0.01,VALID,19.49,VALID,19.0,VALID,0.0,
2018-11-09, 02:38:06,VALID,915.678,VALID,0.0,VALID,99.286,VALID,0.011,VALID,19.475,VALID,12.0,VALID,0.0,
2018-11-09, 02:39:06,VALID,915.644,VALID,0.0,VALID,99.312,VALID,0.003,VALID,19.5,VALID,22.0,VALID,0.0,
2018-11-09, 02:40:06,VALID,915.635,VALID,0.0,VALID,99.314,VALID,0.006,VALID,19.482,VALID,14.0,VALID,0.0,
2018-11-09, 02:41:06,VALID,915.62,VALID,0.0,VALID,99.292,VALID,-0.001,VALID,19.462,VALID,358.0,VALID,0.0,
2018-11-09, 02:42:06,VALID,915.584,VALID,0.0,VALID,99.285,VALID,0.006,VALID,19.444,VALID,5.0,VALID,0.0,
2018-11-09, 02:43:06,VALID,915.548,VALID,0.0,VALID,99.31,VALID,-0.003,VALID,19.43,VALID,352.0,VALID,0.0,
2018-11-09, 02:44:06,VALID,915.517,VALID,0.0,VALID,99.281,VALID,0.011,VALID,19.389,VALID,9.0,VALID,0.0,
2018-11-09, 02:45:06,VALID,915.511,VALID,0.0,VALID,99.312,VALID,-0.01,VALID,19.401,VALID,6.0,VALID,0.0,
2018-11-09, 02:46:06,VALID,915.502,VALID,0.0,VALID,99.312,VALID,0.007,VALID,19.396,VALID,10.0,VALID,0.0,
2018-11-09, 02:47:06,VALID,915.461,VALID,0.0,VALID,99.295,VALID,0.005,VALID,19.379,VALID,5.0,VALID,0.0,
2018-11-09, 02:48:06,VALID,915.435,VALID,0.0,VALID,99.313,VALID,0.016,VALID,19.386,VALID,13.0,VALID,0.0,
2018-11-09, 02:49:06,VALID,915.416,VALID,0.0,VALID,99.316,VALID,0.009,VALID,19.403,VALID,6.0,VALID,0.0,
2018-11-09, 02:50:06,VALID,915.4,VALID,0.0,VALID,99.307,VALID,-0.004,VALID,19.396,VALID,6.0,VALID,0.0,
2018-11-09, 02:51:06,VALID,915.428,VALID,0.0,VALID,99.313,VALID,0.001,VALID,19.407,VALID,10.0,VALID,0.0,
2018-11-09, 02:52:06,VALID,915.404,VALID,0.0,VALID,99.342,VALID,-0.014,VALID,19.428,VALID,10.0,VALID,0.0,
2018-11-09, 02:53:06,VALID,915.419,VALID,0.0,VALID,99.335,VALID,0.003,VALID,19.439,VALID,16.0,VALID,0.0,
2018-11-09, 02:54:06,VALID,915.424,VALID,0.0,VALID,99.341,VALID,-0.012,VALID,19.461,VALID,25.0,VALID,0.0,
2018-11-09, 02:55:06,VALID,915.436,VALID,0.0,VALID,99.321,VALID,-0.012,VALID,19.419,VALID,6.0,VALID,0.0,
2018-11-09, 02:56:06,VALID,915.448,VALID,0.0,VALID,99.302,VALID,-0.015,VALID,19.398,VALID,4.0,VALID,0.0,
2018-11-09, 02:57:06,VALID,915.459,VALID,0.0,VALID,99.324,VALID,-0.022,VALID,19.38,VALID,335.0,VALID,0.0,
2018-11-09, 02:58:06,VALID,915.461,VALID,0.0,VALID,99.317,VALID,-0.011,VALID,19.38,VALID,359.0,VALID,0.0,
2018-11-09, 02:59:06,VALID,915.456,VALID,0.0,VALID,99.333,VALID,-0.007,VALID,19.383,VALID,356.0,VALID,0.0,
2018-11-09, 03:00:06,VALID,915.466,VALID,0.0,VALID,99.33,VALID,-0.032,VALID,19.373,VALID,316.0,VALID,0.0,
2018-11-09, 03:01:06,VALID,915.455,VALID,0.0,VALID,99.323,VALID,-0.007,VALID,19.357,VALID,301.0,VALID,0.0,
2018-11-09, 03:02:06,VALID,915.444,VALID,0.0,VALID,99.329,VALID,-0.024,VALID,19.365,VALID,327.0,VALID,0.0,
2018-11-09, 03:03:06,VALID,915.433,VALID,0.0,VALID,99.323,VALID,-0.017,VALID,19.352,VALID,293.0,VALID,0.0,
2018-11-09, 03:04:06,VALID,915.446,VALID,0.0,VALID,99.321,VALID,-0.016,VALID,19.332,VALID,338.0,VALID,0.0,
2018-11-09, 03:05:06,VALID,915.407,VALID,0.0,VALID,99.349,VALID,-0.003,VALID,19.341,VALID,358.0,VALID,0.0,
2018-11-09, 03:06:06,VALID,915.393,VALID,0.0,VALID,99.345,VALID,-0.017,VALID,19.365,VALID,10.0,VALID,0.0,
2018-11-09, 03:07:06,VALID,915.379,VALID,0.0,VALID,99.359,VALID,-0.029,VALID,19.396,VALID,7.0,VALID,0.0,
2018-11-09, 03:08:06,VALID,915.387,VALID,0.0,VALID,99.351,VALID,-0.027,VALID,19.409,VALID,25.0,VALID,0.0,
2018-11-09, 03:09:06,VALID,915.412,VALID,0.0,VALID,99.381,VALID,-0.012,VALID,19.436,VALID,23.0,VALID,0.0,
2018-11-09, 03:10:06,VALID,915.432,VALID,0.0,VALID,99.373,VALID,0.01,VALID,19.474,VALID,23.0,VALID,0.0,
2018-11-09, 03:11:06,VALID,915.426,VALID,0.0,VALID,99.368,VALID,0.012,VALID,19.486,VALID,23.0,VALID,0.0,
2018-11-09, 03:12:06,VALID,915.425,VALID,0.0,VALID,99.372,VALID,0.026,VALID,19.497,VALID,22.0,VALID,0.0,
2018-11-09, 03:13:06,VALID,915.446,VALID,0.0,VALID,99.348,VALID,0.035,VALID,19.501,VALID,23.0,VALID,0.0,
2018-11-09, 03:14:06,VALID,915.437,VALID,0.0,VALID,99.338,VALID,0.015,VALID,19.442,VALID,353.0,VALID,0.0,
2018-11-09, 03:15:06,VALID,915.442,VALID,0.0,VALID,99.34,VALID,0.008,VALID,19.412,VALID,3.0,VALID,0.0,
2018-11-09, 03:16:06,VALID,915.399,VALID,0.0,VALID,99.335,VALID,0.02,VALID,19.398,VALID,5.0,VALID,0.0,
2018-11-09, 03:17:06,VALID,915.393,VALID,0.0,VALID,99.351,VALID,0.031,VALID,19.415,VALID,16.0,VALID,0.0,
2018-11-09, 03:18:06,VALID,915.376,VALID,0.0,VALID,99.375,VALID,0.025,VALID,19.431,VALID,3.0,VALID,0.0,
2018-11-09, 03:19:06,VALID,915.38,VALID,0.0,VALID,99.328,VALID,0.031,VALID,19.371,VALID,279.0,VALID,0.0,
2018-11-09, 03:20:06,VALID,915.361,VALID,0.0,VALID,99.335,VALID,0.021,VALID,19.35,VALID,353.0,VALID,0.0,
2018-11-09, 03:21:06,VALID,915.347,VALID,0.0,VALID,99.339,VALID,0.028,VALID,19.371,VALID,10.0,VALID,0.0,
2018-11-09, 03:22:06,VALID,915.37,VALID,0.0,VALID,99.36,VALID,0.006,VALID,19.373,VALID,5.0,VALID,0.0,
2018-11-09, 03:23:06,VALID,915.357,VALID,0.0,VALID,99.331,VALID,0.01,VALID,19.343,VALID,4.0,VALID,0.0,
2018-11-09, 03:24:06,VALID,915.354,VALID,0.0,VALID,99.355,VALID,0.009,VALID,19.334,VALID,2.0,VALID,0.0,
2018-11-09, 03:25:06,VALID,915.354,VALID,0.0,VALID,99.352,VALID,0.009,VALID,19.326,VALID,15.0,VALID,0.0,
2018-11-09, 03:26:06,VALID,915.359,VALID,0.0,VALID,99.367,VALID,0.016,VALID,19.347,VALID,24.0,VALID,0.0,
2018-11-09, 03:27:06,VALID,915.365,VALID,0.0,VALID,99.389,VALID,0.02,VALID,19.383,VALID,23.0,VALID,0.0,
2018-11-09, 03:28:06,VALID,915.382,VALID,0.0,VALID,99.386,VALID,0.029,VALID,19.421,VALID,359.0,VALID,0.0,
2018-11-09, 03:29:06,VALID,915.39,VALID,0.0,VALID,99.348,VALID,0.014,VALID,19.375,VALID,351.0,VALID,0.0,
2018-11-09, 03:30:06,VALID,915.417,VALID,0.0,VALID,99.343,VALID,0.018,VALID,19.36,VALID,355.0,VALID,0.0,
2018-11-09, 03:31:06,VALID,915.389,VALID,0.0,VALID,99.367,VALID,0.012,VALID,19.365,VALID,352.0,VALID,0.0,
2018-11-09, 03:32:06,VALID,915.391,VALID,0.0,VALID,99.353,VALID,0.001,VALID,19.352,VALID,12.0,VALID,0.0,
2018-11-09, 03:33:06,VALID,915.392,VALID,0.0,VALID,99.366,VALID,0.017,VALID,19.368,VALID,14.0,VALID,0.0,
2018-11-09, 03:34:06,VALID,915.392,VALID,0.0,VALID,99.374,VALID,0.025,VALID,19.39,VALID,19.0,VALID,0.0,
2018-11-09, 03:35:06,VALID,915.392,VALID,0.0,VALID,99.377,VALID,0.013,VALID,19.399,VALID,8.0,VALID,0.0,
2018-11-09, 03:36:06,VALID,915.394,VALID,0.0,VALID,99.383,VALID,0.022,VALID,19.38,VALID,3.0,VALID,0.0,
2018-11-09, 03:37:06,VALID,915.37,VALID,0.0,VALID,99.359,VALID,0.021,VALID,19.398,VALID,28.0,VALID,0.0,
2018-11-09, 03:38:06,VALID,915.372,VALID,0.0,VALID,99.373,VALID,0.031,VALID,19.4,VALID,32.0,VALID,0.0,
2018-11-09, 03:39:06,VALID,915.372,VALID,0.0,VALID,99.384,VALID,0.009,VALID,19.424,VALID,20.0,VALID,0.0,
2018-11-09, 03:40:06,VALID,915.37,VALID,0.0,VALID,99.375,VALID,0.01,VALID,19.414,VALID,16.0,VALID,0.0,
2018-11-09, 03:41:06,VALID,915.395,VALID,0.0,VALID,99.382,VALID,0.001,VALID,19.415,VALID,7.0,VALID,0.0,
2018-11-09, 03:42:06,VALID,915.382,VALID,0.0,VALID,99.364,VALID,0.016,VALID,19.398,VALID,14.0,VALID,0.0,
2018-11-09, 03:43:06,VALID,915.395,VALID,0.0,VALID,99.383,VALID,-0.007,VALID,19.421,VALID,15.0,VALID,0.0,